NV7SW Weather Reports


time (UTC)temp
C
wind
direction
speed
KPH
gust
KPH
rain 1hr
cm
rain 24hr
cm
rain mn
cm
humidity
%
barometer
mb
20260503030009 17 360 6.4 9.7 0.00 0.00 0.00 15 1008.7
20260503024508 18 360 0.0 3.2 0.00 0.00 0.00 14 1008.6
20260503023007 18 193 1.6 6.4 0.00 0.00 0.00 13 1008.5
20260503021507 19 172 1.6 4.8 0.00 0.00 0.00 12 1008.5
20260503020006 20 360 3.2 6.4 0.00 0.00 0.00 11 1008.5
20260503014505 20 146 3.2 8.0 0.00 0.00 0.00 11 1008.5
20260503013011 20 155 4.8 12.9 0.00 0.00 0.00 11 1008.6
20260503011502 20 360 4.8 16.1 0.00 0.00 0.00 11 1008.7
20260503010003 21 180 3.2 16.1 0.00 0.00 0.00 11 1008.7
20260503004503 21 360 3.2 16.1 0.00 0.00 0.00 12 1008.7
20260503003100 21 184 1.6 12.9 0.00 0.00 0.00 11 1008.7
20260503001559 21 164 4.8 16.1 0.00 0.00 0.00 11 1008.8
20260502234558 21 124 0.0 11.3 0.00 0.00 0.00 11 1009.0
20260502233058 21 40 1.6 4.8 0.00 0.00 0.00 11 1009.1
20260502231602 21 20 4.8 11.3 0.00 0.00 0.00 11 1009.2
20260502230053 21 249 8.0 16.1 0.00 0.00 0.00 11 1009.4
20260502224551 22 194 9.7 14.5 0.00 0.00 0.00 10 1009.5
20260502223049 22 138 1.6 11.3 0.00 0.00 0.00 12 1009.7
20260502221549 22 178 14.5 29.0 0.00 0.00 0.00 12 1009.9
20260502220047 22 182 12.9 19.3 0.00 0.00 0.00 11 1010.2
20260502214554 22 194 6.4 16.1 0.00 0.00 0.00 12 1010.2
20260502213040 22 127 9.7 17.7 0.00 0.00 0.00 12 1010.8
20260502211538 22 147 9.7 29.0 0.00 0.00 0.00 13 1011.0
20260502210045 21 284 9.7 22.5 0.00 0.00 0.00 13 1011.1
20260502204536 21 196 11.3 19.3 0.00 0.00 0.00 12 1011.3
20260502203035 21 119 4.8 24.1 0.00 0.00 0.00 14 1011.5
20260502201531 21 156 14.5 29.0 0.00 0.00 0.00 14 1011.8
20260502200030 21 127 6.4 24.1 0.00 0.00 0.00 14 1011.9
20260502194532 21 157 8.0 24.1 0.00 0.00 0.00 15 1012.1
20260502193025 20 110 4.8 17.7 0.00 0.00 0.00 15 1012.2
20260502191523 21 114 9.7 17.7 0.00 0.00 0.00 15 1012.4
20260502190025 20 166 8.0 24.1 0.00 0.00 0.00 15 1012.5
20260502184521 20 138 8.0 22.5 0.00 0.00 0.00 16 1012.9
20260502183014 20 143 9.7 24.1 0.00 0.00 0.00 17 1013.2
20260502181526 19 123 6.4 19.3 0.00 0.00 0.00 16 1013.4
20260502163051 13 360 0.0 12.9 0.00 0.00 0.00 24 1014.8
20260502161541 12 360 6.4 17.7 0.00 0.00 0.00 24 1015.0
20260502151533 9 360 3.2 9.7 0.00 0.00 0.00 32 1015.1
20260502123005 1 331 0.0 3.2 0.00 0.00 0.00 45 1014.1
20260502121600 1 320 0.0 3.2 0.00 0.00 0.00 42 1014.1
20260502114601 1 68 3.2 4.8 0.00 0.00 0.00 45 1013.8
20260502113059 1 141 0.0 4.8 0.00 0.00 0.00 44 1013.9
20260502111558 2 141 1.6 4.8 0.00 0.00 0.00 41 1013.9
20260502110053 2 110 1.6 4.8 0.00 0.00 0.00 40 1013.9
20260502104549 2 355 1.6 4.8 0.00 0.00 0.00 41 1013.9
20260502103054 2 336 3.2 4.8 0.00 0.00 0.00 43 1013.9
20260502101557 2 232 0.0 1.6 0.00 0.00 0.00 43 1013.9
20260502100107 2 232 0.0 3.2 0.00 0.00 0.00 40 1013.9
20260502091531 5 360 3.2 6.4 0.00 0.00 0.00 36 1013.6
20260502071515 7 360 3.2 12.9 0.00 0.00 0.00 30 1014.0
20260502070011 7 360 4.8 8.0 0.00 0.00 0.00 29 1013.9
20260502064511 8 360 4.8 6.4 0.00 0.00 0.00 28 1013.8
20260502063010 8 273 3.2 6.4 0.00 0.00 0.00 27 1013.7
20260502061516 9 289 6.4 11.3 0.00 0.00 0.00 25 1013.6
20260502060009 9 297 9.7 12.9 0.00 0.00 0.00 25 1013.5
20260502054509 9 282 6.4 14.5 0.00 0.00 0.00 25 1013.4
20260502053008 10 360 3.2 6.4 0.00 0.00 0.00 25 1013.1
20260502051519 11 360 6.4 14.5 0.00 0.00 0.00 23 1013.1
20260502050008 12 360 3.2 8.0 0.00 0.00 0.00 21 1012.8
20260502044507 12 360 4.8 8.0 0.00 0.00 0.00 21 1012.7
20260502043006 12 360 4.8 8.0 0.00 0.00 0.00 21 1012.7
20260502041517 11 360 6.4 9.7 0.00 0.00 0.00 22 1012.6
20260502040012 11 360 4.8 9.7 0.00 0.00 0.00 23 1012.5
20260502034507 11 360 6.4 9.7 0.00 0.00 0.00 22 1012.4
20260502033004 12 360 6.4 9.7 0.00 0.00 0.00 20 1012.2
20260502031504 14 360 6.4 9.7 0.00 0.00 0.00 19 1012.0